Minden, LA

12:16 PM CDT on June 28, 2017 (GMT -0500)
Minden

Weather History for KMNE - January, 2014

Change the Weather History Date:

Sunday, January 12, 2014

  Actual Average (KBAD) Record (KBAD)
Temperature  
Mean Temperature 52 °F -  
Max Temperature 71 °F 54 °F 78 °F (2000)
Min Temperature 32 °F 36 °F 20 °F (2011)
Degree Days  
Heating Degree Days 14    
Growing Degree Days 2 (Base 50)    
Moisture  
Dew Point 34 °F    
Average Humidity 56    
Maximum Humidity 96    
Minimum Humidity 21    
Precipitation  
Precipitation 0.00 in - - ()
Sea Level Pressure  
Sea Level Pressure 30.03 in    
Wind  
Wind Speed 4 mph (SSE)    
Max Wind Speed 15 mph    
Max Gust Speed 25 mph    
Visibility 10 miles    
Events Rain    
Averages and records for this station are not official NWS values.
T = Trace of Precipitation, MM = Missing Value Source: NWS Daily Summary

Daily Weather History Graph

Daily Weather History Graph

Search for Another Location

Airport or City:

Trip Planner

Search our weather history database for the weather conditions in past years. The results will help you decide how hot, cold, wet, or windy it might be!

Date:

Astronomy

Jan. 12, 2014 Rise Set
Actual Time 7:15 AM CST 5:27 PM CST
Civil Twilight 6:49 AM CST 5:54 PM CST
Nautical Twilight 6:18 AM CST 6:24 PM CST
Astronomical Twilight 5:49 AM CST 6:54 PM CST
Moon 2:54 PM CST (1/12) 4:16 AM CST (1/12)
Length of Visible Light 11h 05m
Length of Day
10h 11m
Waxing Gibbous, 90% of the Moon is Illuminated
Jan 12
Waxing Gibbous
Jan 15
Full
Jan 23
Last Quarter
Jan 30
New
Feb 6
First Quarter

Hourly Weather History & Observations

Time (CST) Temp. Windchill Dew Point Humidity Pressure Visibility Wind Dir Wind Speed Gust Speed Precip Events Conditions
12:15 AM 36.7 °F 34.1 °F 34.0 °F 90% 30.10 in 10.0 mi ESE 3.5 mph - N/A   Clear
12:35 AM 37.0 °F - 34.3 °F 90% 30.09 in 10.0 mi Calm Calm - N/A   Clear
12:55 AM 37.6 °F - 34.5 °F 89% 30.09 in 10.0 mi Calm Calm - N/A   Clear
1:15 AM 35.8 °F - 33.3 °F 91% 30.09 in 10.0 mi Calm Calm - N/A   Clear
1:35 AM 35.6 °F - 33.4 °F 92% 30.09 in 10.0 mi Calm Calm - N/A   Clear
1:55 AM 34.7 °F - 32.9 °F 93% 30.10 in 10.0 mi Calm Calm - N/A   Clear
2:15 AM 35.1 °F - 32.9 °F 92% 30.10 in 10.0 mi Calm Calm - N/A   Clear
2:35 AM 34.9 °F - 32.5 °F 91% 30.11 in 10.0 mi Calm Calm - N/A   Clear
2:55 AM 34.7 °F - 32.5 °F 92% 30.11 in 10.0 mi Calm Calm - N/A   Clear
3:15 AM 34.9 °F - 33.1 °F 93% 30.10 in 10.0 mi Calm Calm - N/A   Clear
3:35 AM 34.9 °F - 32.5 °F 91% 30.10 in 10.0 mi Calm Calm - N/A   Clear
3:55 AM 35.8 °F - 33.1 °F 90% 30.11 in 10.0 mi Calm Calm - N/A   Clear
4:15 AM 35.1 °F - 32.7 °F 91% 30.10 in 10.0 mi Calm Calm - N/A   Clear
4:35 AM 34.9 °F - 32.9 °F 92% 30.10 in 10.0 mi Calm Calm - N/A   Clear
4:55 AM 34.5 °F 30.4 °F 32.4 °F 92% 30.10 in 10.0 mi ESE 4.6 mph - N/A   Clear
5:15 AM 34.0 °F 29.8 °F 32.0 °F 92% 30.09 in 10.0 mi ESE 4.6 mph - N/A   Clear
5:35 AM 32.9 °F 29.8 °F 31.6 °F 95% 30.09 in 10.0 mi SE 3.5 mph - N/A   Clear
5:55 AM 32.2 °F - 31.3 °F 96% 30.09 in 10.0 mi Calm Calm - N/A   Clear
6:15 AM 32.7 °F - 31.6 °F 96% 30.09 in 10.0 mi Calm Calm - N/A   Clear
6:35 AM 32.5 °F - 31.6 °F 96% 30.10 in 10.0 mi Calm Calm - N/A   Clear
6:55 AM 32.5 °F 29.3 °F 31.3 °F 95% 30.10 in 10.0 mi ESE 3.5 mph - N/A   Clear
7:15 AM 33.3 °F - 32.0 °F 95% 30.10 in 10.0 mi Calm Calm - N/A   Clear
7:35 AM 33.4 °F 29.1 °F 31.8 °F 94% 30.09 in 10.0 mi ESE 4.6 mph - N/A   Clear
7:55 AM 35.8 °F 33.0 °F 32.2 °F 87% 30.10 in 10.0 mi ESE 3.5 mph - N/A   Clear
8:15 AM 38.1 °F 34.6 °F 34.5 °F 87% 30.11 in 10.0 mi ESE 4.6 mph - N/A   Clear
8:35 AM 43.3 °F - 36.9 °F 78% 30.11 in 10.0 mi Calm Calm - N/A   Clear
8:55 AM 47.8 °F - 36.0 °F 63% 30.12 in 10.0 mi SE 4.6 mph - N/A   Clear
9:15 AM 51.1 °F - 35.8 °F 56% 30.13 in 10.0 mi SE 3.5 mph - N/A   Clear
9:35 AM 54.3 °F - 34.5 °F 47% 30.13 in 10.0 mi SE 6.9 mph - N/A   Clear
9:55 AM 57.4 °F - 33.3 °F 40% 30.13 in 10.0 mi SE 5.8 mph - N/A   Clear
10:15 AM 60.3 °F - 32.9 °F 36% 30.14 in 10.0 mi South 4.6 mph - N/A   Clear
10:35 AM 62.2 °F - 32.4 °F 33% 30.13 in 10.0 mi SSE 5.8 mph - N/A   Clear
10:55 AM 63.7 °F - 32.0 °F 31% 30.12 in 10.0 mi SSE 8.1 mph - N/A   Clear
11:15 AM 65.1 °F - 31.1 °F 28% 30.11 in 10.0 mi SSE 8.1 mph - N/A   Clear
11:35 AM 65.5 °F - 30.6 °F 27% 30.09 in 10.0 mi SSE 9.2 mph 18.4 mph N/A   Clear
11:55 AM 66.4 °F - 31.3 °F 27% 30.07 in 10.0 mi SSE 9.2 mph - N/A   Clear
12:15 PM 67.6 °F - 32.0 °F 27% 30.06 in 10.0 mi South 6.9 mph - N/A   Clear
12:35 PM 68.4 °F - 31.3 °F 25% 30.04 in 10.0 mi South 8.1 mph 17.3 mph N/A   Clear
12:55 PM 69.3 °F - 29.7 °F 23% 30.04 in 10.0 mi South 12.7 mph 18.4 mph N/A   Clear
1:15 PM 69.8 °F - 30.2 °F 23% 30.02 in 10.0 mi South 10.4 mph 17.3 mph N/A   Clear
1:35 PM 69.8 °F - 29.3 °F 22% 30.01 in 10.0 mi South 11.5 mph 17.3 mph N/A   Clear
1:55 PM 70.7 °F - 30.6 °F 23% 30.00 in 10.0 mi South 13.8 mph 19.6 mph N/A   Clear
2:15 PM 70.5 °F - 30.2 °F 22% 29.99 in 10.0 mi South 12.7 mph 20.7 mph N/A   Clear
2:35 PM 71.1 °F - 30.4 °F 22% 29.98 in 10.0 mi South 6.9 mph - N/A   Clear
2:55 PM 71.6 °F - 29.7 °F 21% 29.98 in 10.0 mi South 11.5 mph 18.4 mph N/A   Clear
3:15 PM 70.9 °F - 30.0 °F 22% 29.98 in 10.0 mi South 8.1 mph 17.3 mph N/A   Clear
3:35 PM 70.9 °F - 28.9 °F 21% 29.97 in 10.0 mi South 11.5 mph 19.6 mph N/A   Clear
3:55 PM 69.8 °F - 29.5 °F 22% 29.97 in 10.0 mi South 12.7 mph 19.6 mph N/A   Clear
4:15 PM 68.7 °F - 30.0 °F 24% 29.98 in 10.0 mi South 8.1 mph 16.1 mph N/A   Clear
4:35 PM 67.3 °F - 30.6 °F 25% 29.98 in 10.0 mi South 10.4 mph - N/A   Clear
4:55 PM 66.4 °F - 31.1 °F 27% 29.98 in 10.0 mi South 5.8 mph - N/A   Clear
5:15 PM 65.3 °F - 31.6 °F 28% 29.98 in 10.0 mi SSE 3.5 mph - N/A   Clear
5:35 PM 64.4 °F - 32.0 °F 30% 29.97 in 10.0 mi South 6.9 mph - N/A   Clear
5:55 PM 64.4 °F - 32.0 °F 30% 29.97 in 10.0 mi SSE 5.8 mph - N/A   Clear
6:15 PM 64.4 °F - 32.5 °F 30% 29.96 in 10.0 mi SSE 6.9 mph - N/A   Clear
6:35 PM 64.2 °F - 32.9 °F 31% 29.96 in 10.0 mi South 6.9 mph - N/A   Clear
6:55 PM 64.0 °F - 33.3 °F 32% 29.95 in 10.0 mi SSE 6.9 mph - N/A   Mostly Cloudy
7:15 PM 63.7 °F - 33.8 °F 33% 29.94 in 10.0 mi SSE 11.5 mph 16.1 mph N/A   Scattered Clouds
7:35 PM 63.1 °F - 33.8 °F 33% 29.94 in 10.0 mi South 9.2 mph - N/A   Clear
7:55 PM 63.5 °F - 32.5 °F 31% 29.95 in 10.0 mi South 12.7 mph 20.7 mph N/A   Scattered Clouds
8:15 PM 63.1 °F - 32.9 °F 32% 29.95 in 10.0 mi South 15.0 mph 25.3 mph N/A   Mostly Cloudy
8:35 PM 62.1 °F - 34.7 °F 36% 29.95 in 10.0 mi South 13.8 mph 20.7 mph N/A   Overcast
8:55 PM 58.5 °F - 40.3 °F 51% 29.94 in 10.0 mi SSE 6.9 mph - N/A Rain Light Rain
9:15 PM 57.6 °F - 41.4 °F 55% 29.93 in 10.0 mi SSE 5.8 mph - N/A   Overcast
9:35 PM 57.2 °F - 42.8 °F 59% 29.90 in 10.0 mi SE 11.5 mph 16.1 mph N/A   Light Drizzle
9:55 PM 57.9 °F - 42.8 °F 57% 29.93 in 10.0 mi SSW 5.8 mph - N/A   Overcast
10:15 PM 57.2 °F - 43.5 °F 60% 29.94 in 10.0 mi South 5.8 mph - N/A Rain Light Rain
10:35 PM 57.9 °F - 43.2 °F 58% 29.93 in 10.0 mi SSE 8.1 mph - N/A Rain Light Rain
10:55 PM 58.3 °F - 44.1 °F 59% 29.93 in 10.0 mi South 11.5 mph 18.4 mph N/A Rain Light Rain
11:15 PM 58.6 °F - 45.0 °F 60% 29.93 in 10.0 mi South 11.5 mph 23.0 mph N/A Rain Light Rain
11:35 PM 57.9 °F - 45.5 °F 63% 29.91 in 10.0 mi SSE 11.5 mph 16.1 mph N/A   Light Drizzle
11:55 PM 59.0 °F - 46.4 °F 63% 29.92 in 10.0 mi South 11.5 mph 19.6 mph N/A Rain Light Rain